PLI1573 SPQU-SPJC

Flight info

Callsign PLI1573
Flight time 1h 19m
Altitude 30000
Route VUPKO UT323 SCO
Aircraft B722/M-SDFHIRW/S

Departure

Time 2026-04-28 12:50
Airport Rodríguez Ballón International Airport (SPQU)

Arrival

Time 2026-04-28 14:10
Airport Jorge Chávez International Airport (SPJC)
Time Latitude Longitude Altitude Speed Heading
2026-04-28 12:10 -16.34386 -71.56782 8347 ft 0 kts 220°
2026-04-28 12:40 -16.34375 -71.56773 8347 ft 2 kts 220°
2026-04-28 12:40 -16.34363 -71.56764 8347 ft 1 kts 189°
2026-04-28 12:41 -16.34350 -71.56768 8347 ft 2 kts 136°
2026-04-28 12:41 -16.34344 -71.56782 8347 ft 2 kts 86°
2026-04-28 12:41 -16.34344 -71.56799 8347 ft 2 kts 92°
2026-04-28 12:41 -16.34343 -71.56815 8347 ft 2 kts 94°
2026-04-28 12:42 -16.34343 -71.56829 8347 ft 0 kts 92°
2026-04-28 12:42 -16.34343 -71.56830 8347 ft 0 kts 92°
2026-04-28 12:46 -16.34343 -71.56822 8347 ft 3 kts 93°
2026-04-28 12:46 -16.34347 -71.56745 8347 ft 15 kts 93°
2026-04-28 12:46 -16.34355 -71.56608 8347 ft 21 kts 92°
2026-04-28 12:46 -16.34364 -71.56427 8350 ft 26 kts 94°
2026-04-28 12:47 -16.34374 -71.56244 8373 ft 22 kts 93°
2026-04-28 12:47 -16.34379 -71.56091 8386 ft 18 kts 81°
2026-04-28 12:47 -16.34325 -71.55989 8394 ft 12 kts 56°
2026-04-28 12:47 -16.34276 -71.55913 8407 ft 12 kts 56°
2026-04-28 12:48 -16.34226 -71.55827 8414 ft 16 kts 61°
2026-04-28 12:48 -16.34168 -71.55727 8415 ft 9 kts 50°
2026-04-28 12:48 -16.34140 -71.55718 8416 ft 0 kts 328°
2026-04-28 12:48 -16.34128 -71.55772 8417 ft 18 kts 274°
2026-04-28 12:49 -16.34110 -71.56087 8422 ft 70 kts 273°
2026-04-28 12:49 -16.34069 -71.56808 8390 ft 125 kts 273°
2026-04-28 12:49 -16.34016 -71.57910 8328 ft 168 kts 273°
2026-04-28 12:49 -16.33959 -71.59188 8514 ft 172 kts 273°
2026-04-28 12:50 -16.33920 -71.60457 8830 ft 169 kts 269°
2026-04-28 12:50 -16.34050 -71.61689 9099 ft 169 kts 266°
2026-04-28 12:50 -16.34178 -71.62942 9358 ft 168 kts 264°
2026-04-28 12:50 -16.34291 -71.64192 9599 ft 170 kts 266°
2026-04-28 12:51 -16.34346 -71.65457 9805 ft 172 kts 269°
2026-04-28 12:51 -16.34376 -71.66719 10061 ft 171 kts 269°
2026-04-28 12:51 -16.34389 -71.67996 10265 ft 173 kts 270°
2026-04-28 12:51 -16.34351 -71.69284 10488 ft 173 kts 273°
2026-04-28 12:52 -16.34314 -71.70564 10713 ft 173 kts 266°
2026-04-28 12:52 -16.34389 -71.71854 10908 ft 174 kts 262°
2026-04-28 12:52 -16.34605 -71.73135 11134 ft 173 kts 253°
2026-04-28 12:52 -16.34965 -71.74358 11349 ft 172 kts 249°
2026-04-28 12:53 -16.35295 -71.75577 11530 ft 174 kts 261°
2026-04-28 12:53 -16.35316 -71.76891 11696 ft 176 kts 268°
2026-04-28 12:53 -16.35350 -71.78173 11946 ft 174 kts 266°
2026-04-28 12:53 -16.35407 -71.79553 12003 ft 191 kts 266°
2026-04-28 12:54 -16.35432 -71.80937 12473 ft 182 kts 267°
2026-04-28 12:54 -16.35441 -71.82291 12737 ft 188 kts 267°
2026-04-28 12:54 -16.35447 -71.83792 12755 ft 214 kts 268°
2026-04-28 12:54 -16.35442 -71.85385 13337 ft 211 kts 266°
2026-04-28 12:55 -16.35467 -71.86944 13878 ft 212 kts 265°
2026-04-28 12:55 -16.35502 -71.88545 14364 ft 215 kts 266°
2026-04-28 12:55 -16.35508 -71.90126 14843 ft 217 kts 266°
2026-04-28 12:55 -16.35497 -71.91766 15332 ft 220 kts 267°
2026-04-28 12:56 -16.35478 -71.93394 15811 ft 222 kts 267°
2026-04-28 12:56 -16.35452 -71.95062 16205 ft 230 kts 267°
2026-04-28 12:56 -16.35424 -71.96828 16511 ft 241 kts 267°
2026-04-28 12:56 -16.35393 -71.98650 16968 ft 247 kts 267°
2026-04-28 12:57 -16.35359 -72.00498 17445 ft 252 kts 267°
2026-04-28 12:57 -16.35322 -72.02363 17949 ft 255 kts 267°
2026-04-28 12:57 -16.35282 -72.04263 18509 ft 256 kts 267°
2026-04-28 12:57 -16.35238 -72.06153 19100 ft 254 kts 267°
2026-04-28 12:58 -16.35191 -72.08038 19666 ft 254 kts 267°
2026-04-28 12:58 -16.35144 -72.09914 19918 ft 252 kts 267°
2026-04-28 12:58 -16.35098 -72.11805 19996 ft 256 kts 267°
2026-04-28 12:58 -16.35053 -72.13711 20030 ft 262 kts 267°
2026-04-28 12:59 -16.35011 -72.15688 20038 ft 269 kts 267°
2026-04-28 12:59 -16.34927 -72.17715 20034 ft 277 kts 275°
2026-04-28 12:59 -16.34563 -72.19778 20033 ft 285 kts 275°
2026-04-28 12:59 -16.34275 -72.21866 20055 ft 290 kts 272°
2026-04-28 13:00 -16.34099 -72.24034 20098 ft 295 kts 269°
2026-04-28 13:00 -16.34004 -72.26257 20105 ft 302 kts 268°
2026-04-28 13:00 -16.33957 -72.28528 20114 ft 309 kts 267°
2026-04-28 13:00 -16.33933 -72.30850 20122 ft 316 kts 267°
2026-04-28 13:01 -16.33921 -72.33226 20130 ft 323 kts 267°
2026-04-28 13:01 -16.33914 -72.35661 20138 ft 330 kts 267°
2026-04-28 13:01 -16.33908 -72.38129 20146 ft 338 kts 267°
2026-04-28 13:01 -16.33901 -72.40682 20153 ft 345 kts 267°
2026-04-28 13:02 -16.33894 -72.43261 20160 ft 351 kts 267°
2026-04-28 13:02 -16.33887 -72.45898 20167 ft 358 kts 267°
2026-04-28 13:02 -16.33875 -72.48587 20172 ft 365 kts 268°
2026-04-28 13:02 -16.33356 -72.51270 20177 ft 376 kts 286°
2026-04-28 13:03 -16.32203 -72.53825 20184 ft 387 kts 295°
2026-04-28 13:03 -16.30724 -72.56292 20216 ft 403 kts 300°
2026-04-28 13:03 -16.29089 -72.58738 20899 ft 400 kts 301°
2026-04-28 13:03 -16.27470 -72.61063 22105 ft 382 kts 301°
2026-04-28 13:04 -16.25877 -72.63336 22956 ft 372 kts 301°
2026-04-28 13:04 -16.24329 -72.65563 23627 ft 367 kts 301°
2026-04-28 13:04 -16.22832 -72.67733 24262 ft 362 kts 301°
2026-04-28 13:04 -16.21329 -72.69926 24857 ft 358 kts 301°
2026-04-28 13:05 -16.19875 -72.72060 25333 ft 356 kts 301°
2026-04-28 13:05 -16.18407 -72.74223 25702 ft 358 kts 301°
2026-04-28 13:05 -16.18104 -72.74669 25768 ft 358 kts 301°
2026-04-28 13:05 -16.16811 -72.76575 26040 ft 361 kts 301°
2026-04-28 13:06 -16.15326 -72.78761 26355 ft 363 kts 301°
2026-04-28 13:06 -16.13827 -72.80965 26710 ft 363 kts 301°
2026-04-28 13:06 -16.12352 -72.83136 27087 ft 363 kts 302°
2026-04-28 13:06 -16.10865 -72.85326 27465 ft 362 kts 302°
2026-04-28 13:07 -16.09390 -72.87505 27809 ft 362 kts 302°
2026-04-28 13:07 -16.07901 -72.89705 28120 ft 363 kts 302°
2026-04-28 13:07 -16.06409 -72.91908 28417 ft 363 kts 302°
2026-04-28 13:07 -16.04927 -72.94094 28712 ft 364 kts 303°
2026-04-28 13:08 -16.03435 -72.96291 28963 ft 366 kts 303°
2026-04-28 13:08 -16.01923 -72.98518 28924 ft 377 kts 303°
2026-04-28 13:08 -16.00354 -73.00835 28968 ft 386 kts 303°
2026-04-28 13:08 -15.98755 -73.03200 29152 ft 391 kts 304°
2026-04-28 13:09 -15.97169 -73.05550 29368 ft 395 kts 304°
2026-04-28 13:09 -15.93871 -73.10435 29615 ft 407 kts 305°
2026-04-28 13:09 -15.92200 -73.12907 29899 ft 409 kts 305°
2026-04-28 13:10 -15.90541 -73.15353 29991 ft 415 kts 306°
2026-04-28 13:10 -15.87063 -73.20458 30037 ft 427 kts 306°
2026-04-28 13:11 -15.83500 -73.25648 30029 ft 437 kts 306°
2026-04-28 13:11 -15.79837 -73.30935 30047 ft 446 kts 306°
2026-04-28 13:12 -15.76094 -73.36325 30094 ft 453 kts 306°
2026-04-28 13:12 -15.72351 -73.41724 30164 ft 458 kts 306°
2026-04-28 13:13 -15.68603 -73.47127 30241 ft 461 kts 306°
2026-04-28 13:13 -15.64811 -73.52593 30251 ft 463 kts 306°
2026-04-28 13:14 -15.60989 -73.58086 30240 ft 464 kts 306°
2026-04-28 13:14 -15.57177 -73.63567 30239 ft 465 kts 306°
2026-04-28 13:15 -15.53375 -73.69025 30242 ft 466 kts 307°
2026-04-28 13:15 -15.49516 -73.74561 30240 ft 468 kts 306°
2026-04-28 13:16 -15.45678 -73.80064 30240 ft 468 kts 307°
2026-04-28 13:16 -15.41811 -73.85611 30239 ft 469 kts 306°
2026-04-28 13:17 -15.37959 -73.91133 30239 ft 469 kts 307°
2026-04-28 13:17 -15.34098 -73.96662 30239 ft 469 kts 307°
2026-04-28 13:18 -15.30251 -74.02164 30239 ft 469 kts 307°
2026-04-28 13:18 -15.26405 -74.07660 30239 ft 469 kts 307°
2026-04-28 13:19 -15.22530 -74.13193 30239 ft 469 kts 307°
2026-04-28 13:19 -15.18646 -74.18735 30239 ft 469 kts 307°
2026-04-28 13:20 -15.14786 -74.24239 30239 ft 469 kts 307°
2026-04-28 13:20 -15.10934 -74.29736 30239 ft 469 kts 307°
2026-04-28 13:21 -15.07066 -74.35246 30239 ft 469 kts 307°
2026-04-28 13:21 -15.03189 -74.40770 30239 ft 469 kts 307°
2026-04-28 13:22 -14.99348 -74.46296 30238 ft 469 kts 307°
2026-04-28 13:22 -14.95540 -74.51805 30238 ft 470 kts 307°
2026-04-28 13:23 -14.91688 -74.57368 30239 ft 472 kts 308°
2026-04-28 13:23 -14.87799 -74.62968 30241 ft 475 kts 308°
2026-04-28 13:24 -14.83928 -74.68500 30129 ft 480 kts 309°
2026-04-28 13:24 -14.79946 -74.74149 29947 ft 486 kts 309°
2026-04-28 13:25 -14.75851 -74.79958 29804 ft 489 kts 309°
2026-04-28 13:25 -14.71774 -74.85741 29683 ft 490 kts 309°
2026-04-28 13:26 -14.67668 -74.91554 29720 ft 487 kts 309°
2026-04-28 13:26 -14.63570 -74.97301 29804 ft 484 kts 309°
2026-04-28 13:27 -14.59469 -75.03029 29793 ft 483 kts 308°
2026-04-28 13:27 -14.55411 -75.08697 29722 ft 483 kts 308°
2026-04-28 13:28 -14.51322 -75.14407 29623 ft 483 kts 307°
2026-04-28 13:28 -14.47252 -75.20129 29638 ft 481 kts 307°
2026-04-28 13:29 -14.43210 -75.25837 29645 ft 480 kts 307°
2026-04-28 13:29 -14.39201 -75.31492 29645 ft 479 kts 307°
2026-04-28 13:30 -14.35172 -75.37164 29645 ft 479 kts 307°
2026-04-28 13:30 -14.31172 -75.42796 29645 ft 478 kts 307°
2026-04-28 13:31 -14.25161 -75.51252 29645 ft 477 kts 307°
2026-04-28 13:31 -14.21132 -75.56911 29645 ft 477 kts 307°
2026-04-28 13:32 -14.17121 -75.62546 29645 ft 477 kts 307°
2026-04-28 13:32 -14.13195 -75.68047 29646 ft 477 kts 307°
2026-04-28 13:33 -14.09161 -75.73702 29645 ft 477 kts 307°
2026-04-28 13:33 -14.05141 -75.79336 29645 ft 477 kts 307°
2026-04-28 13:34 -14.01143 -75.84930 29645 ft 477 kts 307°
2026-04-28 13:34 -13.97117 -75.90570 29645 ft 477 kts 307°
2026-04-28 13:35 -13.93097 -75.96196 29645 ft 477 kts 307°
2026-04-28 13:35 -13.89413 -76.01341 29647 ft 477 kts 307°
2026-04-28 13:36 -13.85267 -76.07128 29646 ft 478 kts 307°
2026-04-28 13:36 -13.81219 -76.12782 29645 ft 478 kts 307°
2026-04-28 13:37 -13.77204 -76.18384 29644 ft 476 kts 307°
2026-04-28 13:37 -13.72670 -76.23332 29519 ft 459 kts 323°
2026-04-28 13:38 -13.70002 -76.25163 29387 ft 450 kts 327°
2026-04-28 13:38 -13.67267 -76.26835 29255 ft 441 kts 328°
2026-04-28 13:38 -13.64589 -76.28462 29123 ft 433 kts 328°
2026-04-28 13:38 -13.61967 -76.30098 28991 ft 424 kts 327°
2026-04-28 13:39 -13.59431 -76.31712 28860 ft 416 kts 327°
2026-04-28 13:39 -13.56963 -76.33293 28730 ft 409 kts 327°
2026-04-28 13:39 -13.54504 -76.34869 28598 ft 402 kts 327°
2026-04-28 13:39 -13.52108 -76.36401 28467 ft 395 kts 327°
2026-04-28 13:40 -13.49744 -76.37910 28335 ft 388 kts 327°
2026-04-28 13:40 -13.47427 -76.39390 28204 ft 382 kts 327°
2026-04-28 13:40 -13.45134 -76.40855 28072 ft 375 kts 327°
2026-04-28 13:40 -13.42885 -76.42291 27940 ft 369 kts 327°
2026-04-28 13:41 -13.40681 -76.43698 27809 ft 363 kts 327°
2026-04-28 13:41 -13.38493 -76.45095 27677 ft 357 kts 327°
2026-04-28 13:41 -13.36363 -76.46457 27546 ft 352 kts 327°
2026-04-28 13:41 -13.34247 -76.47809 27414 ft 346 kts 327°
2026-04-28 13:42 -13.32181 -76.49125 27282 ft 341 kts 327°
2026-04-28 13:42 -13.30127 -76.50433 27150 ft 335 kts 327°
2026-04-28 13:42 -13.28120 -76.51712 27012 ft 331 kts 327°
2026-04-28 13:42 -13.26141 -76.52975 26830 ft 327 kts 327°
2026-04-28 13:43 -13.24160 -76.54239 26636 ft 325 kts 327°
2026-04-28 13:43 -13.22195 -76.55492 26404 ft 324 kts 327°
2026-04-28 13:43 -13.20262 -76.56724 26176 ft 323 kts 327°
2026-04-28 13:43 -13.18293 -76.57981 25944 ft 323 kts 327°
2026-04-28 13:44 -13.16357 -76.59216 25717 ft 323 kts 327°
2026-04-28 13:44 -13.14391 -76.60471 25486 ft 323 kts 327°
2026-04-28 13:44 -13.12448 -76.61711 25259 ft 323 kts 327°
2026-04-28 13:44 -13.10486 -76.62960 25029 ft 324 kts 327°
2026-04-28 13:45 -13.08507 -76.64209 24797 ft 325 kts 327°
2026-04-28 13:45 -13.06529 -76.65447 24569 ft 325 kts 327°
2026-04-28 13:45 -13.04544 -76.66683 24338 ft 327 kts 327°
2026-04-28 13:45 -13.02554 -76.67920 24109 ft 328 kts 326°
2026-04-28 13:46 -13.00562 -76.69159 23880 ft 329 kts 326°
2026-04-28 13:46 -12.98541 -76.70418 23648 ft 331 kts 326°
2026-04-28 13:46 -12.96531 -76.71673 23419 ft 333 kts 326°
2026-04-28 13:46 -12.94502 -76.72945 23190 ft 335 kts 326°
2026-04-28 13:47 -12.92467 -76.74229 22963 ft 336 kts 325°
2026-04-28 13:47 -12.90427 -76.75523 22735 ft 338 kts 325°
2026-04-28 13:47 -12.88347 -76.76842 22504 ft 340 kts 325°
2026-04-28 13:47 -12.86302 -76.78142 22279 ft 342 kts 325°
2026-04-28 13:48 -12.84230 -76.79459 22051 ft 344 kts 325°
2026-04-28 13:48 -12.82174 -76.80766 21827 ft 346 kts 325°
2026-04-28 13:48 -12.80067 -76.82105 21599 ft 349 kts 325°
2026-04-28 13:48 -12.77978 -76.83437 21375 ft 351 kts 325°
2026-04-28 13:49 -12.75865 -76.84785 21149 ft 353 kts 325°
2026-04-28 13:49 -12.73758 -76.86131 20925 ft 355 kts 326°
2026-04-28 13:49 -12.71612 -76.87501 20697 ft 357 kts 326°
2026-04-28 13:49 -12.69465 -76.88871 20472 ft 359 kts 326°
2026-04-28 13:50 -12.67322 -76.90239 20247 ft 361 kts 326°
2026-04-28 13:50 -12.65159 -76.91619 20022 ft 362 kts 326°
2026-04-28 13:50 -12.62989 -76.93004 19797 ft 364 kts 326°
2026-04-28 13:50 -12.60791 -76.94406 19570 ft 366 kts 326°
2026-04-28 13:51 -12.58585 -76.95788 19343 ft 368 kts 329°
2026-04-28 13:51 -12.56268 -76.97038 19117 ft 370 kts 331°
2026-04-28 13:51 -12.53930 -76.98225 18892 ft 372 kts 332°
2026-04-28 13:51 -12.51554 -76.99412 18665 ft 373 kts 332°
2026-04-28 13:52 -12.49180 -77.00600 18438 ft 375 kts 332°
2026-04-28 13:52 -12.46810 -77.01789 18213 ft 376 kts 332°
2026-04-28 13:52 -12.44442 -77.02980 17989 ft 378 kts 332°
2026-04-28 13:52 -12.42038 -77.04191 17762 ft 379 kts 333°
2026-04-28 13:53 -12.39644 -77.05396 17537 ft 380 kts 333°
2026-04-28 13:53 -12.37231 -77.06605 17310 ft 382 kts 333°
2026-04-28 13:53 -12.34810 -77.07814 17084 ft 383 kts 333°
2026-04-28 13:53 -12.32355 -77.09038 16855 ft 384 kts 333°
2026-04-28 13:54 -12.29932 -77.10245 16631 ft 386 kts 333°
2026-04-28 13:54 -12.27462 -77.11475 16402 ft 387 kts 333°
2026-04-28 13:54 -12.25021 -77.12690 16177 ft 388 kts 333°
2026-04-28 13:54 -12.22572 -77.13909 15952 ft 389 kts 333°
2026-04-28 13:55 -12.20103 -77.15138 15726 ft 390 kts 333°
2026-04-28 13:55 -12.17606 -77.16381 15497 ft 391 kts 333°
2026-04-28 13:55 -12.15120 -77.17618 15260 ft 382 kts 333°
2026-04-28 13:55 -12.12773 -77.18782 15019 ft 356 kts 333°
2026-04-28 13:56 -12.10609 -77.19854 14776 ft 330 kts 333°
2026-04-28 13:56 -12.08594 -77.20856 14530 ft 304 kts 333°
2026-04-28 13:56 -12.06728 -77.21786 14300 ft 290 kts 333°
2026-04-28 13:56 -12.04894 -77.22701 14068 ft 286 kts 332°
2026-04-28 13:57 -12.03095 -77.23601 13833 ft 279 kts 332°
2026-04-28 13:57 -12.01390 -77.24481 13577 ft 258 kts 331°
2026-04-28 13:57 -11.99832 -77.25299 13329 ft 239 kts 331°
2026-04-28 13:57 -11.98368 -77.26068 13077 ft 223 kts 331°
2026-04-28 13:58 -11.97018 -77.26778 12717 ft 214 kts 331°
2026-04-28 13:58 -11.95675 -77.27486 12141 ft 216 kts 331°
2026-04-28 13:58 -11.94321 -77.28201 11588 ft 219 kts 331°
2026-04-28 13:58 -11.92886 -77.28860 11029 ft 223 kts 338°
2026-04-28 13:59 -11.91389 -77.29378 10478 ft 227 kts 340°
2026-04-28 13:59 -11.89878 -77.29933 9925 ft 230 kts 338°
2026-04-28 13:59 -11.88353 -77.30486 9374 ft 233 kts 339°
2026-04-28 13:59 -11.86800 -77.31029 8821 ft 235 kts 339°
2026-04-28 14:00 -11.85228 -77.31577 8266 ft 237 kts 339°
2026-04-28 14:00 -11.83612 -77.32138 7700 ft 239 kts 339°
2026-04-28 14:00 -11.82011 -77.32695 7144 ft 241 kts 339°
2026-04-28 14:00 -11.80401 -77.33256 6588 ft 242 kts 339°
2026-04-28 14:01 -11.78772 -77.33824 6026 ft 242 kts 339°
2026-04-28 14:01 -11.77093 -77.34006 5456 ft 243 kts 11°
2026-04-28 14:01 -11.75605 -77.33167 4891 ft 246 kts 45°
2026-04-28 14:01 -11.74633 -77.31715 4445 ft 240 kts 60°
2026-04-28 14:02 -11.73906 -77.30174 4316 ft 233 kts 73°
2026-04-28 14:02 -11.73966 -77.28535 4096 ft 229 kts 113°
2026-04-28 14:02 -11.74938 -77.27230 3858 ft 224 kts 140°
2026-04-28 14:02 -11.76168 -77.26253 3671 ft 221 kts 146°
2026-04-28 14:03 -11.77444 -77.25355 3488 ft 218 kts 147°
2026-04-28 14:03 -11.78712 -77.24454 3335 ft 210 kts 146°
2026-04-28 14:03 -11.79817 -77.23648 3370 ft 180 kts 146°
2026-04-28 14:03 -11.80777 -77.22939 3186 ft 158 kts 146°
2026-04-28 14:04 -11.81652 -77.22291 2820 ft 149 kts 147°
2026-04-28 14:04 -11.82575 -77.21802 2371 ft 145 kts 167°
2026-04-28 14:04 -11.83503 -77.21468 2021 ft 134 kts 165°
2026-04-28 14:04 -11.84402 -77.21152 1590 ft 141 kts 163°
2026-04-28 14:05 -11.85324 -77.20812 1410 ft 139 kts 163°
2026-04-28 14:05 -11.86246 -77.20457 1350 ft 136 kts 158°
2026-04-28 14:05 -11.87115 -77.20099 1416 ft 131 kts 162°
2026-04-28 14:05 -11.87989 -77.19710 1550 ft 137 kts 157°
2026-04-28 14:06 -11.88880 -77.19277 1701 ft 140 kts 156°
2026-04-28 14:06 -11.89769 -77.18819 1861 ft 141 kts 155°
2026-04-28 14:06 -11.90658 -77.18343 2076 ft 137 kts 154°
2026-04-28 14:06 -11.91477 -77.17889 2187 ft 133 kts 155°
2026-04-28 14:07 -11.92328 -77.17409 2015 ft 137 kts 152°
2026-04-28 14:07 -11.93158 -77.16888 1896 ft 140 kts 155°
2026-04-28 14:07 -11.94067 -77.16487 1742 ft 141 kts 161°
2026-04-28 14:07 -11.95016 -77.16113 1575 ft 142 kts 159°
2026-04-28 14:08 -11.95942 -77.15713 1368 ft 141 kts 160°
2026-04-28 14:08 -11.96834 -77.15274 1084 ft 143 kts 154°
2026-04-28 14:08 -11.97767 -77.14838 871 ft 143 kts 158°
2026-04-28 14:08 -11.98684 -77.14368 635 ft 148 kts 156°
2026-04-28 14:09 -11.99625 -77.13889 441 ft 148 kts 156°
2026-04-28 14:09 -12.00573 -77.13423 193 ft 150 kts 156°
2026-04-28 14:09 -12.01516 -77.12959 60 ft 141 kts 156°
2026-04-28 14:09 -12.02279 -77.12585 48 ft 89 kts 153°
2026-04-28 14:10 -12.02632 -77.12406 62 ft 27 kts 148°
2026-04-28 14:10 -12.02731 -77.12292 65 ft 18 kts 122°
2026-04-28 14:10 -12.02773 -77.12202 67 ft 7 kts 81°
2026-04-28 14:10 -12.02751 -77.12179 68 ft 5 kts
2026-04-28 14:11 -12.02721 -77.12188 68 ft 3 kts 330°
2026-04-28 14:11 -12.02699 -77.12199 67 ft 3 kts 334°
2026-04-28 14:11 -12.02669 -77.12213 67 ft 6 kts 337°
2026-04-28 14:11 -12.02608 -77.12191 67 ft 13 kts 62°
2026-04-28 14:12 -12.02574 -77.12113 73 ft 8 kts 64°
2026-04-28 14:12 -12.02560 -77.12064 74 ft 7 kts 102°
2026-04-28 14:12 -12.02595 -77.12032 74 ft 6 kts 156°
2026-04-28 14:12 -12.02622 -77.12021 74 ft 1 kts 198°
2026-04-28 14:13 -12.02631 -77.12030 74 ft 2 kts 235°
2026-04-28 14:13 -12.02646 -77.12057 74 ft 4 kts 241°
2026-04-28 14:13 -12.02649 -77.12062 74 ft 0 kts 241°
2026-04-28 14:13 -12.02650 -77.12064 74 ft 0 kts 241°